Hurricane, Utah
Current Conditions -  °F | °C
As of 12:35 PM on Friday 28 Nov 2014 (Local Time) from KSGU Reporting Station
Clear Clear  
Wind Chill: 54°   Ceiling: Unl
Heat Index: 54°   Visibility: 10mi
Dew Point: 19°   Wind: 0mph
Humidity: 26%   Direction: NA
Pressure: 30.09"   Gusts: NA
Location:  37.18°N, 113.29°W
Report Text: KSGU 281935Z AUTO 00000KT 10SM CLR 12/M07 A3009 RMK AO1
Loading
Personal Weather Stations






























Interactive Weather Map New forecast layout! Learn more

10-Day Weather Forecast

Advertisements
Track Severe Weather on mobile